Skip Page Navigation
NASA JPL Caltech
NASA Logo - Jet Propulsion Laboratory + View the NASA Portal
+ Center for Near-Earth Object Studies
JPL Home Earth Solar System Stars & Galaxies Technology
JPL Solar System Dynamics
BODIES ORBITS EPHEMERIDES TOOLS PHYSICAL DATA DISCOVERY FAQ SITE MAP
JPL Small-Body Database Browser
Search: [ help ]  
257346 (2009 KA3)
Classification: Main-belt Asteroid          SPK-ID: 2257346
Ephemeris | Orbit Diagram | Orbital Elements | Mission Design | Physical Parameters | Discovery Circumstances ]

[ hide orbit diagram ]

For accurate long-term ephemerides, please instead use our Horizons system.This orbit viewer was implemented using two-body methods, and hence should not be used for determining accurate long-term trajectories (over several years or decades) or planetary encounter circumstances.


[ revert to old Java-based viewer ]

Orbital Elements at Epoch 2459000.5 (2020-May-31.0) TDB
Reference: JPL 16 (heliocentric ecliptic J2000)
 Element Value Uncertainty (1-sigma)   Units 
e .1558309295961118 3.9468e-08  
a 2.399974898908371 1.384e-08 au
q 2.025984579404145 9.7306e-08 au
i 3.876604469909896 4.0667e-06 deg
node 78.50554278826787 7.2358e-05 deg
peri 137.4688922536795 7.4231e-05 deg
M 4.284142122194177 1.4656e-05 deg
tp 2458984.338939911010
(2020-May-14.83893991)
5.53e-05 TDB
period 1358.027223675891
3.72
1.1747e-05
3.216e-08
d
yr
n .2650904147750121 2.2931e-09 deg/d
Q 2.773965218412597 1.5997e-08 au
  Orbit Determination Parameters
   # obs. used (total)      280  
   data-arc span      6467 days (17.71 yr)  
   first obs. used      2002-08-13  
   last obs. used      2020-04-27  
   planetary ephem.      DE431  
   SB-pert. ephem.      SB431-N16  
   condition code      0  
   norm. resid. RMS      .58758  
   source      ORB  
   producer      Otto Matic  
   solution date      2020-May-21 14:34:02  

Additional Information
 Earth MOID = 1.02081 au 
 Jupiter MOID = 2.1962 au 
 T_jup = 3.507 
[ show covariance matrix ]

Ephemeris | Orbit Diagram | Orbital Elements | Mission Design | Physical Parameters | Discovery Circumstances ]

Physical Parameter Table
Parameter Symbol Value Units Sigma Reference Notes
absolute magnitude H 17.1   n/a MPO418369  

257346 (2009 KA3)          Discovered 2009-May-20 by Lowe, A. at Mayhill
Reference: 20101128/Numbers.arcLast Updated: 2010-12-06
Ephemeris | Orbit Diagram | Orbital Elements | Mission Design | Physical Parameters | Discovery Circumstances ]
ABOUT SSD CREDITS/AWARDS PRIVACY/COPYRIGHT GLOSSARY LINKS
FirstGov 2020-Oct-31 06:24 UT
(server date/time)  
NASA Home Page
Site Manager:   Ryan S. Park
Webmaster  Alan B. Chamberlin